TimeCST,TemperatureF,Dew PointF,Humidity,Sea Level PressureIn,VisibilityMPH,Wind Direction,Wind SpeedMPH,Gust SpeedMPH,PrecipitationIn,Events,Conditions,WindDirDegrees,DateUTC
12:55 AM,30.9,23.0,72,30.36,10.0,SSE,5.8,-,N/A,,Scattered Clouds,160,2012-11-17 06:55:00
1:55 AM,30.9,24.1,76,30.34,10.0,SSE,6.9,-,N/A,,Scattered Clouds,160,2012-11-17 07:55:00
2:55 AM,30.9,25.0,79,30.33,10.0,SSE,8.1,-,N/A,,Partly Cloudy,160,2012-11-17 08:55:00
3:55 AM,30.9,26.1,82,30.32,10.0,South,9.2,-,N/A,,Clear,170,2012-11-17 09:55:00
4:55 AM,32.0,27.0,82,30.31,9.0,SSE,8.1,-,N/A,,Partly Cloudy,160,2012-11-17 10:55:00
5:55 AM,32.0,27.0,82,30.30,9.0,SSE,6.9,-,N/A,,Clear,160,2012-11-17 11:55:00
6:55 AM,33.1,28.0,82,30.30,9.0,SSE,8.1,-,N/A,,Partly Cloudy,160,2012-11-17 12:55:00
7:55 AM,35.1,28.9,78,30.29,8.0,South,8.1,-,N/A,,Partly Cloudy,170,2012-11-17 13:55:00
8:55 AM,37.9,30.9,76,30.29,8.0,South,11.5,-,N/A,,Clear,180,2012-11-17 14:55:00
9:55 AM,43.0,33.1,68,30.29,10.0,SSW,15.0,-,N/A,,Clear,200,2012-11-17 15:55:00
10:55 AM,46.0,33.1,61,30.28,10.0,South,13.8,-,N/A,,Clear,190,2012-11-17 16:55:00
11:55 AM,48.0,33.1,56,30.26,10.0,South,17.3,23.0,N/A,,Partly Cloudy,190,2012-11-17 17:55:00
12:55 PM,50.0,33.1,52,30.24,10.0,South,16.1,-,N/A,,Clear,180,2012-11-17 18:55:00
1:55 PM,51.1,33.1,50,30.24,10.0,South,8.1,-,N/A,,Clear,180,2012-11-17 19:55:00
2:55 PM,53.1,32.0,45,30.23,10.0,South,12.7,-,N/A,,Scattered Clouds,190,2012-11-17 20:55:00
3:55 PM,51.1,33.1,50,30.24,10.0,South,8.1,-,N/A,,Scattered Clouds,170,2012-11-17 21:55:00
4:55 PM,46.9,33.1,59,30.24,10.0,SE,6.9,-,N/A,,Scattered Clouds,140,2012-11-17 22:55:00
5:55 PM,46.9,34.0,61,30.24,10.0,SSE,8.1,-,N/A,,Scattered Clouds,150,2012-11-17 23:55:00
6:55 PM,48.0,35.1,61,30.24,10.0,SSE,11.5,-,N/A,,Mostly Cloudy,160,2012-11-18 00:55:00
7:55 PM,48.0,35.1,61,30.24,10.0,SSE,9.2,-,N/A,,Overcast,160,2012-11-18 01:55:00
8:55 PM,46.9,36.0,66,30.26,10.0,South,9.2,-,0.00,,Overcast,190,2012-11-18 02:55:00
9:55 PM,46.9,37.0,68,30.25,10.0,South,12.7,-,0.00,Rain,Light Rain,170,2012-11-18 03:55:00
10:55 PM,44.1,39.0,82,30.25,9.0,SSE,9.2,-,0.02,Rain,Light Rain,160,2012-11-18 04:55:00
11:55 PM,44.1,37.9,79,30.24,9.0,SSE,9.2,-,0.00,Rain,Light Rain,160,2012-11-18 05:55:00